Regional Weather Roundup
Issued by NWS

Home | Current Version | Previous Version | Graphics & Text | Print | Product List | Glossary On
Versions: 1 2 3 4 5 6 7 8 9 10 11 12 13 14 15 16 17 18 19 20 21 22 23 24 25 26 27 28 29 30 31 32 33 34 35 36 37 38 39 40 41 42 43 44 45 46 47 48 49 50
000
ASUS43 KTOP 270159
RWRKS

WEATHER ROUNDUP FOR KANSAS
NATIONAL WEATHER SERVICE GOODLAND KS
900 PM CDT TUE AUG 26 2014

NOTE:  "FAIR" INDICATES FEW OR NO CLOUDS BELOW 12,000 FEET WITH NO
SIGNIFICANT WEATHER AND/OR OBSTRUCTIONS TO VISIBILITY.

KSZ001>006-013>018-027>032-041>047-270300-
NORTHWEST KANSAS

CITY           SKY/WX    TMP DP  RH WIND       PRES   REMARKS
GOODLAND       CLOUDY    75  63  66 E6        30.12S
HAYS           CLEAR     79  64  61 SE6       30.06R
HILL CITY      PTCLDY    78  64  61 E6        30.07R
RUSSELL        PTCLDY    77  68  73 SE8       30.04R
$$

KSZ061>065-074>080-084>089-270300-
SOUTHWEST KANSAS

CITY           SKY/WX    TMP DP  RH WIND       PRES   REMARKS
DODGE CITY     PTCLDY    76  64  66 SE7       30.08R
ELKHART          N/A     70  60  70 SW12        N/A
GARDEN CITY    PTCLDY    80  63  55 SE12      30.08R
GREAT BEND     MOCLDY    81  66  61 SE8       30.06R
LIBERAL        MOCLDY    79  63  57 SE10      30.11R
$$

KSZ066>073-081>083-090>101-270300-
SOUTHEAST KANSAS

CITY           SKY/WX    TMP DP  RH WIND       PRES   REMARKS
CHANUTE        PTCLDY    83  65  54 S3        30.04R
COFFEYVILLE    PTCLDY    86  68  54 CALM      30.03R
HUTCHINSON     PTCLDY    76  68  76 E3        30.05R
NEWTON         PTCLDY    81  64  57 SE5       30.10R
PARSONS        PTCLDY    80  70  71 CALM      30.04R
WICHITA INTL   MOCLDY    80  69  69 NE6       30.04R
WICHITA JABRA  MOCLDY    79  69  71 NE5       30.05R
WINFIELD       MOCLDY    86  67  52 E5        30.04R
$$

KSZ007>012-019>026-033>040-048>060-102>105-270300-
NORTHEAST KANSAS

CITY           SKY/WX    TMP DP  RH WIND       PRES   REMARKS
CONCORDIA      CLEAR     75  70  84 E5        30.06R
EMPORIA        CLOUDY    78  67  68 NE5       30.07R
LAWRENCE       CLOUDY    86  71  60 W6        30.07R
MANHATTAN      PTCLDY    76  69  79 NE7       30.05R
OLATHE IND     MOCLDY    84  73  69 E6        30.07R
OLATHE EXE     MOCLDY    83  74  74 E8        30.07R
SALINA         MOCLDY    83  66  56 E5        30.05R
TOPEKA BILLARD CLOUDY    78  73  84 SE5       30.07R
TOPEKA FORBES  CLOUDY    78  72  81 E5        30.07S
$$


USA.gov is the U.S. government's official web portal to all federal, state and local government web resources and services.